User: anonymous   Login
Location: Unspecified
(0.0000°N, 0.0000°E)
Time: 22:24:04
(UTC+00:00)
Language:

STARLINK-33876 - Orbit

View from above orbital plane
View from above orbital plane
View from above satellite
View from above satellite

Ground track
Ground track

The orbit is defined by the following mean orbital elements,

1 63639U          26145.43415311 +.00000000 +00000-0 +81675-3 0 00000
2 63639  42.9993 291.8161 0000915 280.6000  79.4749 15.27594684    05
Epoch (UTC): 25 May 2026 10:25:10
Eccentricity: 0.0000915
inclination: 42.9993°
perigee height: 482 km
apogee height: 484 km
right ascension of ascending node: 291.8161°
argument of perigee: 280.6000°
revolutions per day: 15.27594684
mean anomaly at epoch: 79.4749°

The dashed part of the orbit path shows where the satellite is in the earth's shadow,  

DLR